Location: *
(41.2436°N, 81.2289°W)
Time: 01:38:48
(UTC+00:00)

Daily predictions for brighter satellites

Satellite Brightness Start Highest point End
(mag) Time Altitude Azimuth Time Altitude Azimuth Time Altitude Azimuth
Cosmos 1939 Rocket 4.2 00:02:14 10° SSW 00:05:50 38° W 00:09:30 10° NNW
Cosmos 923 Rocket 3.9 00:04:11 10° S 00:09:09 64° ESE 00:09:09 64° ESE
H-2A R/B 2.2 00:10:50 54° NNE 00:10:50 54° NNE 00:15:04 10° N
YAOGAN 1 4.0 00:22:49 28° NNW 00:22:49 28° NNW 00:24:57 10° NNW
NOSS 3-2 (A) 3.1 00:20:46 10° SSW 00:26:18 79° ESE 00:26:19 79° ESE
Cosmos 158 Rocket 4.2 00:22:29 10° SSW 00:26:32 59° SSW 00:26:32 59° SSW
SL-16 R/B 4.4 00:24:39 10° W 00:28:40 20° NW 00:32:43 10° N
Cosmos 2239 Rocket 4.4 00:24:48 10° N 00:30:59 86° W 00:37:11 10° S
Cosmos 2228 Rocket 3.8 00:28:11 10° SSW 00:32:20 53° W 00:32:20 53° W
BREEZE-M DEB (TANK) 4.3 00:29:55 10° WSW 00:31:24 23° WSW 00:31:24 23° WSW
USA 215 3.8 00:34:27 40° NNE 00:36:22 52° NNW 00:42:39 10° WSW
Cosmos 1680 Rocket 4.3 00:31:57 10° SSW 00:35:23 42° SSW 00:35:23 42° SSW
MOS 1 Rocket 4.5 00:40:37 27° NNW 00:43:15 49° WNW 00:48:24 10° SW
USA 238 DEB 3.5 00:37:14 10° SSW 00:43:43 88° SSW 00:43:43 88° SSW
USA 238 3.5 00:37:20 10° SSW 00:43:47 87° SSW 00:43:47 87° SSW
USA 267 3.6 01:09:12 58° NW 01:09:12 58° NW 01:14:17 10° NW
Milstar 3 Cent rocket 4.3 08:57:58 27° SSE 08:57:58 27° SSE 09:05:06 10° ESE
NOSS 3-4 (A) 4.2 09:23:18 46° NE 09:23:18 46° NE 09:27:40 10° NE
NOSS 3-4 (C) 4.1 09:23:22 47° NE 09:23:22 47° NE 09:27:48 10° NE
NOSS 3-2 (C) 4.0 09:22:37 78° NNE 09:23:01 80° NE 09:31:40 10° SE
CENTAUR R/B 3.1 09:23:19 73° N 09:24:14 82° NE 09:33:09 10° SE
Lacrosse 5 3.4 09:29:47 32° ENE 09:29:47 32° ENE 09:32:36 10° NE
SJ 16-02 3.8 09:37:06 16° NE 09:37:06 16° NE 09:38:02 10° NNE
Atlas Centaur 2 3.8 09:34:28 27° S 09:34:31 27° S 09:39:30 10° ESE
ATLAS 2AS CENTAUR R/B 3.0 09:38:11 46° SSW 09:40:54 78° ESE 09:48:49 10° NE
Cosmos 2263 Rocket 3.6 09:48:25 28° N 09:48:25 28° N 09:51:04 10° NNE
NOSS 3-2 (A) 4.3 09:51:01 50° SW 09:51:01 50° SW 09:58:23 10° S
COSMO-SKYMED 1 4.4 09:52:54 10° SE 09:56:36 28° ENE 09:59:36 14° NNE
Lacrosse 4 Rocket 2.0 10:03:37 57° ESE 10:03:37 57° ESE 10:07:17 10° SE
FENGYUN 3A 3.5 10:00:27 10° NNE 10:05:54 89° ESE 10:11:18 10° SSW
USA 238 DEB 4.3 10:08:23 42° SW 10:08:23 42° SW 10:14:50 10° S
USA 238 4.2 10:08:26 43° SW 10:08:26 43° SW 10:14:56 10° S
Genesis I 4.1 10:09:55 45° ESE 10:09:59 45° ESE 10:13:39 10° NE
CZ-4B R/B 4.0 10:12:02 10° SSE 10:12:24 13° SSE 10:12:24 13° SSE
Cosmos 1461 4.2 10:17:59 32° SSW 10:17:59 32° SSW 10:20:37 10° S
Cosmos 1603 4.0 10:18:18 45° SW 10:18:18 45° SW 10:22:52 10° S
Cosmos 1709 Rocket 4.0 10:12:43 10° SSW 10:18:59 61° W 10:25:20 10° N
Meteor 2-3 Rocket 3.6 10:13:25 10° SSW 10:19:08 81° W 10:24:57 10° N
Cosmos 2181 Rocket 3.9 10:14:00 10° N 10:20:14 86° E 10:26:22 10° S
Cosmos 1943 3.3 10:23:32 50° WSW 10:23:32 50° WSW 10:28:59 10° S
deb Chang Zheng 4 3.5 10:20:25 10° NNE 10:24:47 84° ESE 10:29:08 10° SSW
CZ-4C R/B 1.8 10:26:54 39° SW 10:28:49 82° NW 10:34:35 10° NNE
ALOS 3.4 10:24:48 10° N 10:27:10 28° N 10:27:10 28° N
BREEZE M DEB (TANK) 4.1 10:19:14 10° SW 10:32:02 55° SSE 10:35:41 10° ENE
Cosmos 990 Rocket 3.9 10:27:58 10° SSW 10:33:12 87° WNW 10:38:30 10° NNE
GPS 2-04 Rocket1 3.6 10:33:14 35° SSW 10:33:41 36° S 10:37:14 10° ESE
SL-4 R/B 3.8 10:37:22 18° N 10:37:22 18° N 10:39:39 10° NE
Cosmos 923 Rocket 3.9 10:35:15 32° NNW 10:37:45 70° WSW 10:43:01 10° S
ERS-2 2.8 10:34:58 10° S 10:37:36 40° SSW 10:37:36 40° SSW
PSLV R/B 4.4 10:36:39 10° SSE 10:40:43 60° ENE 10:44:46 10° N
Cosmos 1782 2.7 10:39:16 32° NNW 10:41:05 81° W 10:45:06 10° S
Cosmos 1515 Rocket 3.6 10:38:25 11° N 10:42:48 82° E 10:47:16 10° S
Cosmos 2228 Rocket 4.5 10:39:06 10° N 10:43:14 38° ENE 10:47:19 10° SE
SKYMED 2 3.5 10:40:11 10° SSE 10:44:31 87° WSW 10:48:13 14° NNW
Cosmos 1151 Rocket 3.2 10:44:42 44° W 10:44:42 44° W 10:48:40 10° SSW
ATLAS 3B R/B 2.9 10:39:41 18° NNW 10:45:08 77° NE 10:52:23 10° SE
METEOR-M 4.2 10:39:58 10° N 10:45:09 52° WNW 10:50:18 10° SW
Cosmos 2074 Rocket 3.9 10:42:52 10° S 10:49:04 90° W 10:55:19 10° N
SJ-12 3.8 10:45:31 10° N 10:49:32 64° WNW 10:53:32 10° SSW
Cosmos 158 Rocket 4.0 10:50:04 30° NW 10:52:10 50° WSW 10:57:00 10° S
RESURS DK-1 2.4 10:51:31 18° SW 10:54:27 56° WNW 10:58:34 10° NNE
Meteor PRIRODA 3.5 10:52:27 10° N 10:56:13 78° WNW 10:59:56 10° SSW
ATLAS CENTAUR R/B 1.6 10:56:53 21° NNW 10:59:15 60° NE 11:03:10 10° SE
BREEZE-M DEB 4.1 10:53:01 20° WNW 11:00:15 67° NNE 11:03:45 10° ESE
H-2A R/B 3.0 10:57:53 10° NNE 11:01:48 72° ESE 11:05:38 10° S
Meteor 1-4 Rocket 4.0 11:03:45 20° SW 11:03:45 20° SW 11:05:19 10° SSW
Cosmos 1500 Rocket 3.4 10:59:11 10° S 11:03:29 80° W 11:07:50 10° N
Cosmos 1844 Rocket 2.6 10:58:02 10° SSW 11:03:40 70° WNW 11:09:21 10° NNE
Cosmos 1437 Rocket 4.3 11:00:55 10° N 11:04:25 35° ENE 11:07:54 10° SE
Cosmos 1328 Rocket 4.3 11:04:11 27° WNW 11:05:22 31° W 11:09:16 10° SSW
Cosmos 1680 Rocket 3.7 11:01:31 16° NNW 11:05:34 52° WSW 11:10:41 10° S
FALCON 9 DEB 4.3 11:06:04 23° NNW 11:06:04 23° NNW 11:08:38 10° NNE
FALCON 9 DEB 4.3 11:06:07 24° NNW 11:06:07 24° NNW 11:08:45 10° NNE
Cosmos 2184 Rocket 4.0 11:00:35 10° SSW 11:06:50 69° W 11:13:13 10° N
Lacrosse 5 2.8 11:09:02 23° WNW 11:10:53 29° NNW 11:15:18 10° NNE
SJ 16-02 3.1 11:14:10 15° NW 11:14:10 15° NW 11:15:38 10° NNW
NOSS 3-4 (A) 4.5 11:10:47 21° WNW 11:13:00 25° NW 11:18:10 10° NNE
NOSS 3-4 (C) 4.4 11:10:52 21° WNW 11:13:07 25° NW 11:18:19 10° NNE
CENTAUR R/B 4.2 11:10:33 19° WNW 11:14:26 26° WSW 11:21:18 10° SSW
Okean O Rocket 3.7 11:10:54 10° NE 11:14:51 30° E 11:18:46 10° SSE
Cosmos 372 Rocket 4.2 11:10:58 10° S 11:16:01 71° ESE 11:21:06 10° NNE
COSMOS 2455 3.1 11:10:18 10° SSW 11:16:18 75° ESE 11:22:20 10° NNE
OAO 2 Rocket 4.3 11:12:56 15° WSW 11:16:40 38° S 11:21:24 10° ESE
EO 1 Delta rocket 3.8 11:11:44 10° S 11:16:55 78° W 11:21:33 10° NNW
Cosmos 1844 3.6 11:12:46 10° SSW 11:18:17 66° WNW 11:23:50 10° NNE
SMAP 4.4 11:17:11 10° NNE 11:21:38 42° E 11:26:02 10° S
USA 234 3.6 11:15:53 10° NE 11:22:25 70° SE 11:28:55 10° SW
Atlas Centaur 2 3.7 11:17:44 10° WSW 11:23:01 27° S 11:27:23 10° SE
BREEZE-M (TANK) 4.1 11:13:00 10° SW 11:23:15 52° SSE 11:26:23 10° ENE
Sich 1 3.6 11:19:22 10° S 11:23:44 62° E 11:28:08 10° NNE
Cosmos 1689 Rocket 3.0 11:22:27 10° SSW 11:24:55 26° W 11:26:00 21° WNW
CZ-4B DEB 4.4 11:19:30 10° NNE 11:25:00 78° ESE 11:30:28 10° S
SJ-7 4.3 11:23:10 10° N 11:27:14 71° WNW 11:31:20 10° SSW
Cosmos 1743 Rocket 3.9 11:23:22 10° SSW 11:27:35 42° WNW 11:31:51 10° N
Meteor 2-6 Rocket 4.2 11:22:46 10° NNW 11:28:04 57° W 11:33:24 10° S
Aureole 2 Rocket 2.0 11:26:45 10° SW 11:29:09 39° WNW 11:31:35 10° N
H-2A R/B 2.4 11:26:19 10° NNE 11:30:10 79° ESE 11:33:59 10° S
Cosmos 2263 Rocket 4.0 11:30:10 11° NW 11:30:30 12° NW 11:32:23 10° NNW
ATLAS 2AS CENTAUR R/B 3.8 11:25:45 10° W 11:32:40 31° NW 11:39:29 10° NNE
COSMO-SKYMED 1 3.6 11:29:07 10° SSW 11:32:43 25° W 11:36:20 10° NW
Cosmos 1898 Rocket 4.3 11:28:46 10° WSW 11:33:26 31° WNW 11:38:09 10° N
ATLAS 5 CENTAUR R/B 2.7 11:30:05 10° S 11:33:52 45° ESE 11:38:01 10° NE
Gbstr 26 Del rocket 2.9 11:33:44 15° WNW 11:36:44 56° SW 11:40:44 10° SE
BREEZE-M DEB (TANK) 3.4 11:36:43 14° WNW 11:38:58 42° N 11:43:55 10° ENE
CZ-2C R/B 3.5 11:33:55 10° SSE 11:39:14 54° ENE 11:44:29 10° N
Lacrosse 4 Rocket 3.5 11:39:58 10° W 11:40:58 11° WSW 11:42:14 10° WSW
Envisat 2.9 11:36:09 10° N 11:41:13 71° WNW 11:46:16 10° SSW
APEX 4.5 11:36:42 10° SSW 11:42:35 74° WNW 11:49:31 10° NNE
CZ-4B R/B 4.2 11:39:26 10° NNW 11:42:59 23° WNW 11:46:27 10° WSW
Cosmos 1805 Rocket 3.7 11:42:21 10° SSW 11:46:41 53° W 11:51:03 10° N
YAOGAN 6 2.7 11:43:38 10° N 11:47:02 48° WNW 11:50:23 10° SSW
Cosmos 1862 4.3 11:45:01 10° SW 11:48:28 26° WNW 11:51:56 10° NNW
Cosmos 1937 Rocket 4.3 11:45:37 10° WSW 11:50:04 29° WNW 11:54:36 10° N
Nadezhda 3 Rocket 4.2 11:44:28 10° NNW 11:50:34 54° W 11:56:34 10° SSW
MOS 1 Rocket 3.8 11:46:42 10° S 11:51:15 44° W 11:56:06 10° NNW
Cosmos 1666 Rocket 3.6 11:49:30 10° S 11:53:48 84° E 11:58:09 10° N
Cosmos 2082 Rocket 4.1 11:49:34 10° N 11:54:19 26° NE 11:59:02 10° ESE
